Location: Azul
(36.7830°S, 59.8500°W)
Time: 21:55:14
(UTC-03:00)

RS-44 - Pass Details

Date: 25 September 2024
Orbit: 1174 x 1511 km, 82.5° (Epoch: 11 October)

Event Time Altitude Azimuth Distance (km) Brightness Sun altitude
Rises 01:00:42 0° 174° (S) 4,490 ? -52.1°
Reaches altitude 10° 01:04:28 10° 159° (SSE) 3,561 ? -52.1°
Enters shadow 01:08:35 20° 130° (SE) 2,904 ? -52.0°
